Weather History for Cross City, FL

Change the Weather History Date:

Friday, April 27, 2012

  Actual Average Record
Temperature  
Mean Temperature 68 °F 69 °F  
Max Temperature 84 °F 83 °F 90 °F (2002)
Min Temperature 53 °F 56 °F 42 °F (2001)
Degree Days  
Heating Degree Days 0 1  
Month to date heating degree days 48  
Since 1 July heating degree days 1303  
Cooling Degree Days 4 5  
Month to date cooling degree days 92  
Year to date cooling degree days 166  
Growing Degree Days 18 (Base 50)    
Moisture  
Dew Point 58 °F    
Average Humidity 73    
Maximum Humidity 100    
Minimum Humidity 32    
Precipitation  
Precipitation 0.00 in 0.05 in 0.69 in (2006)
Month to date precipitation 2.81  
Year to date precipitation 14.33  
Sea Level Pressure  
Sea Level Pressure 30.09 in    
Wind  
Wind Speed 2 mph (WSW)    
Max Wind Speed 13 mph    
Max Gust Speed 16 mph    
T = Trace of Precipitation, MM = Missing Value Source: NWS Daily Summary

Daily Weather History Graph

Daily Weather History Graph

Search for Another Location

Airport:

Trip Planner

Search our weather history database for the weather conditions in past years. The results will help you decide how hot, cold, wet, or windy it might be!

Date:

Astronomy

Apr. 27, 2012 Rise Set
Actual Time 6:53 AM EDT 8:07 PM EDT
Civil Twilight 6:28 AM EDT 8:32 PM EDT
Nautical Twilight 5:58 AM EDT 9:01 PM EDT
Astronomical Twilight 5:27 AM EDT 9:32 PM EDT
Moon 11:36 AM EDT (4/27) 12:46 AM EDT (4/27)
Length of Visible Light 14h 03m
Length of Day
13h 13m
Waxing Crescent, 33% of the Moon is Illuminated
Apr 27
Waxing Crescent
Apr 29
First Quarter
May 5
Full
May 12
Last Quarter
May 20
New

Hourly Weather History & Observations

Time (EDT) Temp. Heat Index Dew Point Humidity Pressure Visibility Wind Dir Wind Speed Gust Speed Precip Events Conditions
12:53 AM 57.9 °F - 55.9 °F 93% 30.11 in - Calm Calm - N/A   Unknown
1:53 AM 57.0 °F - 55.0 °F 93% 30.09 in - Calm Calm - N/A   Unknown
2:53 AM 55.9 °F - 54.0 °F 93% 30.07 in - Calm Calm - N/A   Unknown
3:53 AM 54.0 °F - 53.1 °F 97% 30.06 in - Calm Calm - N/A   Unknown
4:53 AM 55.9 °F - 55.0 °F 97% 30.06 in - Calm Calm - N/A   Unknown
5:53 AM 54.0 °F - 54.0 °F 100% 30.07 in - Calm Calm - N/A   Unknown
6:53 AM 54.0 °F - 53.1 °F 97% 30.09 in - Calm Calm - N/A   Unknown
7:53 AM 57.0 °F - 57.0 °F 100% 30.12 in - Calm Calm - N/A   Unknown
8:53 AM 64.0 °F - 63.0 °F 96% 30.14 in - Calm Calm - N/A   Unknown
9:53 AM 73.0 °F - 64.9 °F 76% 30.15 in - SSW 4.6 mph - N/A   Unknown
10:53 AM 75.9 °F - 62.1 °F 62% 30.15 in - West 6.9 mph - N/A   Unknown
11:53 AM 80.1 °F 80.9 °F 60.1 °F 50% 30.14 in - SSW 8.1 mph - N/A   Unknown
12:53 PM 82.9 °F 82.6 °F 57.9 °F 42% 30.12 in - West 12.7 mph - N/A   Unknown
1:53 PM 82.9 °F 82.6 °F 57.9 °F 42% 30.11 in - Variable 3.5 mph 16.1 mph N/A   Unknown
2:53 PM 82.9 °F 82.4 °F 57.0 °F 41% 30.09 in - Variable 4.6 mph - N/A   Unknown
3:53 PM 84.0 °F 83.3 °F 57.0 °F 40% 30.06 in - WSW 6.9 mph - N/A   Unknown
4:53 PM 82.9 °F 82.4 °F 57.0 °F 41% 30.05 in - WNW 8.1 mph - N/A   Unknown
5:53 PM 80.1 °F 80.6 °F 57.9 °F 47% 30.06 in - WSW 10.4 mph - N/A   Unknown
6:53 PM 78.1 °F - 57.9 °F 50% 30.06 in - WSW 9.2 mph - N/A   Unknown
7:53 PM 73.0 °F - 60.1 °F 64% 30.06 in - West 5.8 mph - N/A   Unknown
8:53 PM 69.1 °F - 61.0 °F 75% 30.06 in - West 3.5 mph - N/A   Unknown
9:53 PM 66.9 °F - 62.1 °F 84% 30.08 in - Calm Calm - N/A   Unknown
10:53 PM 63.0 °F - 61.0 °F 93% 30.09 in - Calm Calm - N/A   Unknown
11:53 PM 61.0 °F - 59.0 °F 93% 30.10 in - Calm Calm - N/A   Unknown